Regional Weather Roundup
Issued by NWS Upton, NY

Current Version | Previous Version | Text Only | Print | Product List | Glossary Off
Versions: 1 2 3 4 5 6 7 8 9 10 11 12 13 14 15 16 17 18 19 20 21 22 23 24 25 26 27 28

000
ASUS41 KOKX 250809
RWROKX

REGIONAL WEATHER ROUNDUP
NATIONAL WEATHER SERVICE NEW YORK NY
400 AM EDT MON SEP 25 2017

NOTE: "FAIR" INDICATES FEW OR NO CLOUDS BELOW 12,000 FEET WITH NO
SIGNIFICANT WEATHER AND/OR OBSTRUCTIONS TO VISIBILITY.

NYZ071-072-176-178-NJZ106-104-250900-
NEW YORK CITY METRO AREA

CITY           SKY/WX    TMP DP  RH WIND       PRES   REMARKS
Central Park   CLEAR     74  65  73 NE3       30.04S
Bronx Bot Gard   N/A     68  63  83 SE1       30.02F
LaGuardia APRT CLEAR     72  68  87 NE5       30.01S
Kennedy INTL   CLEAR     68  27  21 NE5       30.02F
Breezy Point     N/A     70 N/A N/A CALM        N/A
Newark/Liberty CLEAR     70  64  81 N3        30.01S
Teterboro      CLEAR     71  67  87 N5        30.01S
$$

NYZ177-179-078>081-250900-
LONG ISLAND NEW YORK

CITY           SKY/WX    TMP DP  RH WIND       PRES   REMARKS
Jones Beach      N/A     70 N/A N/A E3          N/A
Matinecock PT    N/A     70 N/A N/A E1          N/A
Farmingdale    CLEAR     66  64  93 N3        30.02S
MacArthur/ISP  CLEAR     66  63  90 CALM      30.02S
Shirley        CLEAR     64  62  93 CALM      30.03S
Mt Sinai Harb    N/A     66 N/A N/A S3          N/A
Westhampton    CLEAR     59  55  87 CALM      30.04S
East Hampton   FAIR      58  56  96 CALM      30.03R
Montauk          N/A     65  64  97 CALM      30.04F
$$

NYZ052-065-067-250900-
HUDSON VALLEY

CITY           SKY/WX    TMP DP  RH WIND       PRES   REMARKS
White Plains   CLEAR     71  65  81 NW7       30.03S
Larchmont Harb   N/A     68 N/A N/A N1          N/A
Croton On Huds   N/A     68 N/A N/A MISG        N/A
Newburgh       CLEAR     70  68  94 CALM      30.06S
Montgomery     CLEAR     64  63  96 CALM      30.05R
Poughkeepsie   CLEAR     63  61  93 CALM      30.04S
Albany         PTCLDY    67  65  93 CALM      30.07S
$$

NJZ001-105-106-008-010-013-015-019>022-104-250900-
NEW JERSEY

CITY           SKY/WX    TMP DP  RH WIND       PRES   REMARKS
Newark/Liberty CLEAR     70  64  81 N3        30.01S
Teterboro      CLEAR     71  67  87 N5        30.01S
Caldwell       CLEAR     68  68 100 CALM      30.03S
Somerville     NOT AVBL
Linden         FAIR      71  65  83 CALM      30.02R
Perth Amboy      N/A     70 N/A N/A CALM        N/A
Sussex         FOG       63  63 100 CALM      30.06R VSB 3/4
Andover          N/A     64  63  96 CALM      30.06S
Trenton        CLEAR     67  65  93 CALM      30.02R
Millville      CLEAR     65  64  97 CALM      30.02S
Atlantic City  CLEAR     65  63  93 CALM      30.03R
Wrightstown    CLEAR     64  62  93 CALM      30.00S
Toms River     CLEAR     61  58  90 CALM      30.03S
Belmar         CLEAR     67  64  90 CALM      30.04R
$$

PAZ047>061-062-071-250900-
EASTERN PENNSYLVANIA

CITY           SKY/WX    TMP DP  RH WIND       PRES   REMARKS
Philadelphia   PTCLDY    71  67  87 S3        30.02S
Allentown      CLEAR     67  64  90 CALM      30.04S
Scranton       CLEAR     67  64  90 E7        30.08F
$$

CTZ002-004>006-009-010-012-RIZ004-006-007-MAZ004-011-015-250900-
SOUTHERN NEW ENGLAND
 IN CT

CITY           SKY/WX    TMP DP  RH WIND       PRES   REMARKS
Bradley INTL   CLEAR     67  66  97 CALM      30.04S
Hartford       CLEAR     67  65  93 CALM      30.03S
Danbury        CLEAR     64  62  93 CALM      30.06S
Wtrbury/Oxford CLEAR     66  64  93 CALM      30.06S
Norwalk Harbor   N/A     68 N/A N/A N3          N/A
Bridgeport     CLEAR     69  65  86 N3        30.02S
Meriden        CLEAR     64  63  96 CALM      30.03S
New Haven      CLEAR     65  62  90 CALM      30.03S
Chester        FAIR      64  63  94 CALM      30.04S
Groton         CLEAR     62  60  93 CALM      30.03R
Wilimantic     CLEAR     64  64 100 CALM      30.04S

 IN RI

CITY           SKY/WX    TMP DP  RH WIND       PRES   REMARKS
Providence     CLEAR     65  63  93 CALM      30.04S
Block Island   CLEAR     64  62  93 CALM      30.04S
Westerly       CLEAR     62  60  93 CALM      30.04S
 IN MA

CITY           SKY/WX    TMP DP  RH WIND       PRES   REMARKS
Boston         CLEAR     66  63  90 CALM      30.03S
Worcester      CLEAR     75  64  68 N7        30.07S
Westfield      CLEAR     65  65 100 CALM      30.05S
Provincetown   CLEAR     63  63 100 S6        30.05R
Nantucket      FOG       63  63 100 N5        30.04S VSB 1/4
$$

ANZ330-335-338-340-345-350-353-355-250900-
COASTAL MARINE OBSERVATIONS


STATION/POSITION TIME  SKY/WX   TEMP    WIND        PRES    VSBY  WAVE
                                AIR SEA DIR/SP/G                  HT/PER
                 (UTC)          (F)     (DEG/KT/KT) (MB)    (MI)  (FT/S)
NY HARB ENTRANCE 0650            71 71   CALM  /  2 1015.7          3/11
20 S FIRE ISLAND 0650            69 69   30/  4/  6 1016.5          4/11
GREAT SOUTH BAY  0645            71 71     CALM       N/A
23 SSW MONTAUK P 0650            66 65              1017.3          4/12
15 E BARNEGAT LI 0730               71                N/A           3/13
HUDSON CANYON    0650            67 69   40/ 10/ 12 1015.5          6/11
KINGS POINT      0730            70 72   CALM  /  1 1017.3
EXECUTION ROCKS  0745            71     130/  2/  4   N/A
WESTERN LI SOUND NOT AVBL
CENTRAL LI SOUND 0745            71      CALM  /  2   N/A           0
EASTERN LI SOUND NOT AVBL
ROBBINS REEF     0748            73      CALM  /  1 1016.9
$$


>>>>>>>>>>>>>>>>>>>>>>>>>>>> KEY <<<<<<<<<<<<<<<<<<<<<<<<<<<
>                                                          <
>     SKY/WX - Sky Condition/Present Weather               <
>     TMP    - Temperature in Fahrenheit                   <
>     DP     - Dew Point in Fahrenheit                     <
>     RH     - Relative Humidity in Percent                <
>     WIND   - Direction (from) and Speed in MPH           <
>     PRES   - Mean Sea Level Pressure (inches of Hg)      <
>     WCI    - Wind Chill Index                            <
>     VSB    - VISIBILITY IN MILES                         <
>     HX     - HEAT INDEX                                  <
>     TC     - TEMPERATURE IN CELSIUS                      <
>     VRB    - VARIABLE WIND DIRECTION                     <
>                                                          <
>>>>>>>>>>>>>>>>>>>>>>>>>>>> KEY <<<<<<<<<<<<<<<<<<<<<<<<<<<




USA.gov is the U.S. government's official web portal to all federal, state and local government web resources and services.